Location: Brest
(52.1000°N, 23.7000°E)
Time: 10:08:56
(UTC+03:00)

Genesis I - Visible Passes

Search period start: 29 June 2017 00:00
Search period end: 09 July 2017 00:00
Orbit: 504 x 527 km, 64.5° (Epoch: 28 June)

Date Brightness Start Highest point End Pass type
(mag) Time Alt. Az. Time Alt. Az. Time Alt. Az.
29 Jun 4.8 00:32:33 18° SE 00:33:16 19° ESE 00:36:03 10° ENE visible
29 Jun 3.4 02:07:31 16° SW 02:10:32 68° NW 02:14:28 10° NE visible
29 Jun 5.6 03:45:54 10° WNW 03:48:52 20° NNW 03:51:52 10° NNE visible
30 Jun 4.7 00:16:37 18° SE 00:17:24 19° ESE 00:20:14 10° ENE visible
30 Jun 3.5 01:51:33 15° SW 01:54:41 67° NW 01:58:38 10° NE visible
30 Jun 5.7 03:30:06 10° WNW 03:33:03 20° NNW 03:36:02 10° NNE visible
01 Jul 4.7 00:00:35 18° SE 00:01:34 19° ESE 00:04:25 10° ENE visible
01 Jul 3.5 01:35:31 14° SW 01:38:50 66° NW 01:42:48 10° NE visible
01 Jul 5.7 03:14:17 10° WNW 03:17:13 20° NNW 03:20:11 10° NNE visible
01 Jul 4.7 23:44:25 17° SE 23:45:43 20° ESE 23:48:36 10° ENE visible
02 Jul 3.5 01:19:20 11° SW 01:23:01 65° NW 01:26:57 10° NE visible
02 Jul 5.8 02:58:28 10° WNW 03:01:23 20° NNW 03:04:20 10° NNE visible
02 Jul 4.6 23:28:05 15° SSE 23:29:51 20° ESE 23:32:47 10° ENE visible
03 Jul 3.6 01:03:17 10° SW 01:07:10 64° NW 01:11:06 10° NE visible
03 Jul 5.9 02:42:38 10° WNW 02:45:33 19° NNW 02:48:30 10° NNE visible
03 Jul 6.2 04:22:30 10° NNW 04:24:37 14° N 04:26:45 10° NE visible
03 Jul 4.6 23:11:30 12° SSE 23:14:00 20° ESE 23:16:57 10° ENE visible
04 Jul 3.6 00:47:26 10° SW 00:51:20 63° NW 00:55:16 10° NE visible
04 Jul 5.9 02:26:49 10° WNW 02:29:43 19° NNW 02:32:39 10° NNE visible
04 Jul 6.2 04:06:40 10° NNW 04:08:47 14° N 04:10:55 10° NE visible
04 Jul 4.6 22:55:12 10° SSE 22:58:09 21° ESE 23:01:08 10° ENE visible
05 Jul 3.7 00:31:36 10° SW 00:35:29 62° NW 00:39:24 10° NE visible
05 Jul 6.0 02:11:00 10° WNW 02:13:53 19° NNW 02:16:48 10° NNE visible
05 Jul 6.3 03:50:50 10° NNW 03:52:58 14° N 03:55:05 10° NE visible
05 Jul 4.5 22:39:18 10° SSE 22:42:17 21° ESE 22:45:18 10° ENE visible
06 Jul 3.7 00:15:46 10° SW 00:19:38 61° NW 00:23:34 10° NE visible
06 Jul 6.1 01:55:10 10° WNW 01:58:03 19° NNW 02:00:57 10° NNE visible
06 Jul 6.4 03:35:00 10° NNW 03:37:07 14° N 03:39:16 10° NE visible
06 Jul 3.8 23:59:55 10° WSW 00:03:48 60° NW 00:07:43 10° NE visible
07 Jul 6.1 01:39:21 10° WNW 01:42:13 19° NNW 01:45:06 10° NNE visible
07 Jul 6.4 03:19:10 10° NNW 03:21:18 14° N 03:23:26 10° NE visible
07 Jul 3.8 23:44:05 10° WSW 23:47:56 59° NW 23:51:52 10° NE visible
08 Jul 6.2 01:23:32 10° WNW 01:26:23 19° NNW 01:29:15 10° NNE visible
08 Jul 6.5 03:03:19 10° NNW 03:05:28 14° N 03:07:36 10° NE visible
08 Jul 3.9 23:28:14 10° WSW 23:32:06 58° NW 23:36:01 10° NE visible
